TimeEST,TemperatureF,Dew PointF,Humidity,Sea Level PressureIn,VisibilityMPH,Wind Direction,Wind SpeedMPH,Gust SpeedMPH,PrecipitationIn,Events,Conditions,WindDirDegrees,DateUTC
12:53 AM,39.9,30.9,70,30.20,10.0,Calm,Calm,-,N/A,,Clear,0,2013-03-07 05:53:00
1:53 AM,39.9,30.0,68,30.22,10.0,NW,3.5,-,N/A,,Clear,310,2013-03-07 06:53:00
2:53 AM,37.0,28.9,73,30.22,10.0,Calm,Calm,-,N/A,,Clear,0,2013-03-07 07:53:00
3:53 AM,34.0,28.9,82,30.24,10.0,Calm,Calm,-,N/A,,Clear,0,2013-03-07 08:53:00
4:53 AM,36.0,30.0,79,30.25,10.0,Calm,Calm,-,N/A,,Clear,0,2013-03-07 09:53:00
5:53 AM,34.0,28.9,82,30.25,10.0,Calm,Calm,-,N/A,,Clear,0,2013-03-07 10:53:00
6:53 AM,35.1,28.9,78,30.26,10.0,Calm,Calm,-,N/A,,Clear,0,2013-03-07 11:53:00
7:53 AM,39.9,32.0,73,30.27,10.0,Variable,4.6,-,N/A,,Clear,0,2013-03-07 12:53:00
8:53 AM,44.1,30.0,58,30.28,10.0,NNE,9.2,-,N/A,,Clear,20,2013-03-07 13:53:00
9:53 AM,48.9,30.9,50,30.29,10.0,Variable,5.8,-,N/A,,Clear,0,2013-03-07 14:53:00
10:53 AM,51.1,30.0,44,30.29,10.0,ENE,3.5,-,N/A,,Mostly Cloudy,70,2013-03-07 15:53:00
11:53 AM,55.9,30.0,37,30.30,10.0,Variable,3.5,-,N/A,,Scattered Clouds,0,2013-03-07 16:53:00
12:53 PM,60.1,30.0,32,30.28,10.0,Variable,3.5,-,N/A,,Scattered Clouds,0,2013-03-07 17:53:00
1:53 PM,61.0,28.9,30,30.24,10.0,Calm,Calm,-,N/A,,Clear,0,2013-03-07 18:53:00
2:53 PM,64.0,32.0,30,30.22,10.0,NNW,5.8,-,N/A,,Clear,330,2013-03-07 19:53:00
3:53 PM,64.9,30.9,28,30.21,10.0,Calm,Calm,-,N/A,,Clear,0,2013-03-07 20:53:00
4:53 PM,64.0,32.0,30,30.20,10.0,Variable,4.6,-,N/A,,Clear,0,2013-03-07 21:53:00
5:53 PM,60.1,35.1,39,30.21,8.0,WNW,3.5,-,N/A,,Clear,300,2013-03-07 22:53:00
6:53 PM,53.1,36.0,52,30.23,6.0,Calm,Calm,-,N/A,,Haze,0,2013-03-07 23:53:00
7:53 PM,48.0,36.0,63,30.25,8.0,Calm,Calm,-,N/A,,Clear,0,2013-03-08 00:53:00
8:53 PM,44.1,36.0,73,30.25,8.0,Calm,Calm,-,N/A,,Clear,0,2013-03-08 01:53:00
9:53 PM,42.1,35.1,76,30.25,8.0,Calm,Calm,-,N/A,,Clear,0,2013-03-08 02:53:00
10:53 PM,42.1,35.1,76,30.25,7.0,Calm,Calm,-,N/A,,Clear,0,2013-03-08 03:53:00
11:53 PM,39.9,35.1,83,30.25,6.0,Calm,Calm,-,N/A,,Haze,0,2013-03-08 04:53:00